Weather in Taipalsaari

Finland     61°09′29″N   28°04′01″E
temp.,
°C
wind,
m/s
gust,
m/s
humid.,
%
clouds,
%
prec.,
mm/h
press.,
hPa
HPBL,
m
27 january, wed
wed2723:00+1se3698100 0.6 1000203
02:00+1ese3598100 0.6 999175
05:000e3597100 0.0 998176
08:00−1e2399100 0.8 997131
11:000ne1198100 1.4 99879
14:000e019898 2.4 99857
17:00−1sse229873 0.1 99938
20:00−1sse239685 0.1 1000139
28 january, thu
thu2823:00−1sse3598100 0.2 1001214
02:00−1s369799 0.8 1002223
05:00−2s369791 0.1 1002176
08:00−2sse369793 0.4 1003217
11:00−1sse4695100 0.4 1004300
14:00−1se4697100 1.3 1004364
17:00−2se3697100 0.6 1003212
20:00−3sse229899 0.8 100340
29 january, fri
fri2923:00−3ese2498100 0.2 1002123
02:00−3e3597100 0.4 1001171
05:00−3e3797100 0.4 999263
08:00−3ene4896100 1.1 997395
11:00−3ene4793100 0.9 996415
14:00−3ne5894100 1.4 995463
17:00−4ne5895100 0.6 993375
20:00−4ne3497100 1.1 992110
30 january, sat
sat3023:00−2nne2398100 0.7 991103
02:00−1n2399100 0.9 98994
05:00−1nnw3598100 0.9 987145
08:00−1nnw3598100 3.1 986162
11:00−1ene4698100 1.7 985299
14:00−2nne3597100 2.9 985281
17:00−4nne3596100 1.0 985245
20:00−4nne3596100 1.7 985231
31 january, sun
sun3123:00−5n2496100 0.4 985196
02:00−6n2496100 0.9 986191
05:00−6nnw2396100 0.3 985151
08:00−7nnw2396100 0.5 98789
11:00−7nnw239489 0.1 988165
14:00−8nw239380 0.1 989156
17:00−9nw229584 0.0 99122
20:00−10wnw229591 0.0 99229